• In Hungary
  • List of Countries
  • For 7 days
  • Water Temperature
  • Satellite Maps
  • Weather Map
  • News
  • Weather Widgets
  • user-avatar
    Login

    Hourly Weather Prcanj

    Today, 22 October, Monday

    Time Temperature Precipitation Wind Pressure Humidity
    00:00 +7°C° 0 mm 4 mps 707 mmHg 78%
    01:00 +7°C° 0 mm 4 mps 707 mmHg 78%
    02:00 +7°C° 0 mm 4 mps 707 mmHg 78%
    03:00 +6°C° 0 mm 4 mps 707 mmHg 77%
    04:00 +6°C° 0 mm 5 mps 707 mmHg 77%
    05:00 +6°C° 0 mm 5 mps 707 mmHg 76%
    06:00 +6°C° 0 mm 5 mps 707 mmHg 75%
    07:00 +7°C° 0 mm 5 mps 707 mmHg 74%
    08:00 +10°C° 0 mm 4 mps 707 mmHg 68%
    09:00 +12°C° 0 mm 4 mps 707 mmHg 61%
    10:00 +14°C° 0 mm 4 mps 707 mmHg 54%
    11:00 +15°C° 0 mm 4 mps 707 mmHg 52%
    12:00 +17°C° 0 mm 3 mps 707 mmHg 49%
    13:00 +18°C° 0 mm 3 mps 706 mmHg 47%
    14:00 +17°C° 0 mm 3 mps 706 mmHg 51%
    15:00 +16°C° 0 mm 3 mps 706 mmHg 55%
    16:00 +16°C° 0 mm 2 mps 706 mmHg 58%
    17:00 +14°C° 0.1 mm 2 mps 706 mmHg 62%
    18:00 +12°C° 0.1 mm 3 mps 707 mmHg 66%
    19:00 +11°C° 0.1 mm 3 mps 707 mmHg 70%
    20:00 +11°C° 0.1 mm 3 mps 707 mmHg 71%
    21:00 +10°C° 0.1 mm 3 mps 707 mmHg 73%
    22:00 +10°C° 0.1 mm 3 mps 707 mmHg 74%
    23:00 +10°C° 0 mm 3 mps 707 mmHg 75%

    Tomorrow, 23 October, Tuesday

    Time Temperature Precipitation Wind Pressure Humidity
    00:00 +10°C° 0 mm 3 mps 707 mmHg 76%
    01:00 +9°C° 0 mm 3 mps 707 mmHg 77%
    02:00 +10°C° 0 mm 3 mps 707 mmHg 77%
    03:00 +10°C° 0 mm 4 mps 707 mmHg 77%
    04:00 +10°C° 0 mm 4 mps 707 mmHg 77%
    05:00 +10°C° 0 mm 4 mps 707 mmHg 77%
    06:00 +10°C° 0 mm 4 mps 707 mmHg 76%
    07:00 +10°C° 0 mm 4 mps 707 mmHg 75%
    08:00 +12°C° 0 mm 4 mps 707 mmHg 68%
    09:00 +13°C° 0 mm 4 mps 707 mmHg 61%
    10:00 +16°C° 0 mm 3 mps 708 mmHg 54%
    11:00 +17°C° 0 mm 3 mps 708 mmHg 53%
    12:00 +17°C° 0 mm 3 mps 707 mmHg 51%
    13:00 +18°C° 0 mm 3 mps 707 mmHg 49%
    14:00 +17°C° 0 mm 3 mps 707 mmHg 52%
    15:00 +16°C° 0 mm 3 mps 706 mmHg 55%
    16:00 +16°C° 0 mm 3 mps 706 mmHg 59%
    17:00 +13°C° 0 mm 3 mps 706 mmHg 63%
    18:00 +11°C° 0 mm 3 mps 706 mmHg 68%
    19:00 +10°C° 0 mm 3 mps 707 mmHg 73%
    20:00 +10°C° 0 mm 3 mps 707 mmHg 74%
    21:00 +9°C° 0 mm 3 mps 707 mmHg 76%
    22:00 +9°C° 0 mm 3 mps 707 mmHg 77%
    23:00 +9°C° 0 mm 3 mps 707 mmHg 78%

    Day after tomorrow, 24 October, Wednesday

    Time Temperature Precipitation Wind Pressure Humidity
    00:00 +8°C° 0 mm 3 mps 706 mmHg 78%
    01:00 +8°C° 0 mm 3 mps 706 mmHg 79%
    02:00 +8°C° 0 mm 3 mps 706 mmHg 76%
    03:00 +8°C° 0 mm 3 mps 705 mmHg 73%
    04:00 +8°C° 0 mm 3 mps 705 mmHg 70%
    05:00 +8°C° 0 mm 3 mps 705 mmHg 65%
    06:00 +9°C° 0 mm 3 mps 705 mmHg 60%
    07:00 +9°C° 0 mm 3 mps 705 mmHg 55%
    08:00 +12°C° 0 mm 3 mps 705 mmHg 51%
    09:00 +14°C° 0 mm 3 mps 705 mmHg 46%
    10:00 +18°C° 0 mm 2 mps 705 mmHg 42%
    11:00 +18°C° 0 mm 3 mps 704 mmHg 41%
    12:00 +19°C° 0 mm 4 mps 704 mmHg 41%
    13:00 +20°C° 0 mm 5 mps 704 mmHg 41%
    14:00 +19°C° 0 mm 5 mps 703 mmHg 45%
    15:00 +17°C° 0 mm 5 mps 703 mmHg 49%
    16:00 +16°C° 0 mm 5 mps 703 mmHg 52%
    17:00 +15°C° 0 mm 4 mps 703 mmHg 56%
    18:00 +14°C° 0 mm 4 mps 703 mmHg 59%
    19:00 +13°C° 0 mm 4 mps 703 mmHg 62%
    20:00 +13°C° 0 mm 4 mps 703 mmHg 63%
    21:00 +12°C° 0 mm 3 mps 704 mmHg 64%
    22:00 +12°C° 0 mm 3 mps 704 mmHg 64%
    23:00 +11°C° 0 mm 4 mps 704 mmHg 66%

    25 October, Thursday

    Time Temperature Precipitation Wind Pressure Humidity
    00:00 +11°C° 0 mm 4 mps 705 mmHg 68%
    01:00 +9°C° 0 mm 5 mps 705 mmHg 70%
    02:00 +8°C° 0 mm 5 mps 705 mmHg 70%
    03:00 +7°C° 0 mm 4 mps 706 mmHg 69%
    04:00 +5°C° 0 mm 4 mps 706 mmHg 69%
    05:00 +5°C° 0 mm 4 mps 707 mmHg 67%
    06:00 +5°C° 0 mm 4 mps 707 mmHg 64%
    07:00 +4°C° 0 mm 4 mps 708 mmHg 62%
    08:00 +6°C° 0 mm 4 mps 708 mmHg 51%
    09:00 +8°C° 0 mm 4 mps 708 mmHg 40%
    10:00 +11°C° 0 mm 4 mps 709 mmHg 29%
    11:00 +12°C° 0 mm 4 mps 709 mmHg 29%
    12:00 +13°C° 0 mm 3 mps 709 mmHg 28%
    13:00 +14°C° 0 mm 3 mps 708 mmHg 27%
    14:00 +13°C° 0 mm 3 mps 708 mmHg 31%
    15:00 +14°C° 0 mm 2 mps 708 mmHg 35%
    16:00 +13°C° 0 mm 2 mps 708 mmHg 39%
    17:00 +12°C° 0 mm 2 mps 708 mmHg 43%
    18:00 +9°C° 0 mm 2 mps 708 mmHg 46%
    19:00 +8°C° 0 mm 2 mps 709 mmHg 50%
    20:00 +7°C° 0 mm 3 mps 709 mmHg 52%
    21:00 +7°C° 0 mm 3 mps 709 mmHg 55%
    22:00 +7°C° 0 mm 3 mps 709 mmHg 58%
    23:00 +7°C° 0 mm 3 mps 709 mmHg 60%

    26 October, Friday

    Time Temperature Precipitation Wind Pressure Humidity
    00:00 +7°C° 0 mm 3 mps 708 mmHg 62%
    01:00 +7°C° 0 mm 2 mps 708 mmHg 63%
    02:00 +7°C° 0 mm 2 mps 708 mmHg 63%
    03:00 +7°C° 0 mm 2 mps 708 mmHg 62%
    04:00 +7°C° 0 mm 2 mps 708 mmHg 62%
    05:00 +8°C° 0 mm 2 mps 708 mmHg 60%
    06:00 +8°C° 0 mm 2 mps 708 mmHg 58%
    07:00 +8°C° 0 mm 2 mps 708 mmHg 56%
    08:00 +12°C° 0 mm 2 mps 708 mmHg 52%
    09:00 +14°C° 0 mm 2 mps 708 mmHg 47%
    10:00 +16°C° 0 mm 3 mps 708 mmHg 43%
    11:00 +17°C° 0 mm 3 mps 708 mmHg 43%
    12:00 +17°C° 0 mm 3 mps 708 mmHg 44%
    13:00 +17°C° 0 mm 3 mps 707 mmHg 45%
    14:00 +17°C° 0 mm 3 mps 707 mmHg 47%
    15:00 +16°C° 0 mm 3 mps 707 mmHg 50%
    16:00 +14°C° 0 mm 3 mps 707 mmHg 53%
    17:00 +12°C° 0 mm 3 mps 707 mmHg 55%
    18:00 +11°C° 0 mm 3 mps 707 mmHg 57%
    19:00 +10°C° 0 mm 3 mps 707 mmHg 59%
    20:00 +9°C° 0 mm 3 mps 707 mmHg 58%
    21:00 +8°C° 0 mm 4 mps 708 mmHg 56%
    22:00 +8°C° 0 mm 4 mps 708 mmHg 55%
    23:00 +8°C° 0 mm 4 mps 708 mmHg 61%

    27 October, Saturday

    Time Temperature Precipitation Wind Pressure Humidity
    00:00 +10°C° 0 mm 4 mps 708 mmHg 67%
    01:00 +10°C° 0 mm 4 mps 707 mmHg 73%
    02:00 +10°C° 0.1 mm 4 mps 707 mmHg 77%
    03:00 +9°C° 0.1 mm 5 mps 707 mmHg 82%
    04:00 +10°C° 0.1 mm 5 mps 707 mmHg 86%
    05:00 +10°C° 0.1 mm 5 mps 707 mmHg 86%
    06:00 +10°C° 0.1 mm 5 mps 707 mmHg 86%
    07:00 +12°C° 0.1 mm 5 mps 706 mmHg 86%
    08:00 +11°C° 0.2 mm 6 mps 706 mmHg 85%
    09:00 +13°C° 0.2 mm 6 mps 706 mmHg 84%
    10:00 +13°C° 0.2 mm 6 mps 706 mmHg 83%
    11:00 +13°C° 0.3 mm 6 mps 706 mmHg 85%
    12:00 +13°C° 0.3 mm 6 mps 705 mmHg 86%
    13:00 +12°C° 0.3 mm 7 mps 705 mmHg 88%
    14:00 +14°C° 0.5 mm 7 mps 705 mmHg 89%
    15:00 +13°C° 0.5 mm 8 mps 704 mmHg 91%
    16:00 +13°C° 0.5 mm 9 mps 704 mmHg 93%
    17:00 +13°C° 0.5 mm 9 mps 704 mmHg 93%
    18:00 +13°C° 0.5 mm 9 mps 704 mmHg 92%
    19:00 +13°C° 0.5 mm 10 mps 704 mmHg 92%
    20:00 +13°C° 0.7 mm 10 mps 704 mmHg 92%
    21:00 +13°C° 0.7 mm 10 mps 704 mmHg 93%
    22:00 +13°C° 0.7 mm 10 mps 704 mmHg 93%
    23:00 +13°C° 1 mm 10 mps 704 mmHg 93%
    Show more